Location: Groß Eilstorf
(52.8200°N, 9.4552°E)
Time: 08:23:08
(UTC+00:00)

Meteor 1-27 Rocket - Pass Details

Date: 15 May 2026
Orbit: 830 x 907 km, 81.3° (Epoch: 6 June)

Event Time Altitude Azimuth Distance (km) Brightness Sun altitude
Exits shadow 23:25:47 31° 190° (S) 1,517 4.4 -18.1°
Maximum altitude 23:28:46 88° 102° (ESE) 887 3.7 -18.1°
Drops below altitude 10° 23:34:31 10° 14° (NNE) 2,520 7.4 -18.0°
Sets 23:36:56 0° 14° (NNE) 3,450 8.5 -18.0°
